TimeEST,TemperatureF,Dew PointF,Humidity,Sea Level PressureIn,VisibilityMPH,Wind Direction,Wind SpeedMPH,Gust SpeedMPH,PrecipitationIn,Events,Conditions,WindDirDegrees,DateUTC
12:01 AM,35.6,28.4,75,29.78,9.0,West,6.9,17.3,0.00,,Overcast,280,2012-11-24 05:01:00
12:54 AM,35.1,26.1,70,29.81,8.0,West,6.9,-,0.00,Snow,Light Snow,270,2012-11-24 05:54:00
1:54 AM,36.0,25.0,64,29.80,10.0,West,10.4,17.3,0.01,,Overcast,280,2012-11-24 06:54:00
2:54 AM,35.1,25.0,67,29.81,10.0,WNW,8.1,-,0.00,,Mostly Cloudy,290,2012-11-24 07:54:00
3:54 AM,35.1,23.0,61,29.81,10.0,WNW,8.1,23.0,N/A,,Overcast,300,2012-11-24 08:54:00
4:54 AM,35.1,23.0,61,29.82,10.0,West,9.2,27.6,0.00,,Overcast,280,2012-11-24 09:54:00
5:54 AM,34.0,26.1,73,29.83,9.0,Variable,5.8,-,0.00,,Overcast,0,2012-11-24 10:54:00
7:54 AM,33.1,21.9,64,29.85,10.0,WNW,15.0,20.7,N/A,,Clear,300,2012-11-24 12:54:00
8:54 AM,34.0,21.9,61,29.86,10.0,NW,17.3,25.3,N/A,,Mostly Cloudy,310,2012-11-24 13:54:00
9:54 AM,34.0,21.0,59,29.88,10.0,NW,15.0,25.3,N/A,,Overcast,310,2012-11-24 14:54:00
10:54 AM,35.1,19.9,54,29.89,10.0,WNW,12.7,27.6,N/A,,Overcast,300,2012-11-24 15:54:00
11:54 AM,35.1,21.0,57,29.88,10.0,WNW,16.1,26.5,N/A,,Overcast,300,2012-11-24 16:54:00
12:54 PM,33.1,21.9,64,29.88,5.0,WNW,13.8,25.3,0.00,Snow,Light Snow,300,2012-11-24 17:54:00
1:54 PM,35.1,19.9,54,29.87,10.0,WNW,12.7,21.9,0.00,,Overcast,300,2012-11-24 18:54:00
2:54 PM,35.1,18.0,50,29.88,10.0,WNW,13.8,28.8,N/A,,Overcast,300,2012-11-24 19:54:00
3:54 PM,34.0,21.0,59,29.90,9.0,WNW,10.4,-,0.00,Snow,Light Snow,300,2012-11-24 20:54:00
4:54 PM,33.1,23.0,66,29.92,10.0,WNW,6.9,17.3,0.00,,Overcast,290,2012-11-24 21:54:00
5:54 PM,33.1,21.9,64,29.94,10.0,WNW,9.2,-,0.00,,Overcast,290,2012-11-24 22:54:00
6:54 PM,34.0,19.9,56,29.94,10.0,WNW,12.7,18.4,N/A,,Overcast,300,2012-11-24 23:54:00
7:54 PM,33.1,21.0,61,29.95,10.0,WNW,11.5,20.7,0.00,,Overcast,300,2012-11-25 00:54:00
8:54 PM,33.1,19.0,56,29.97,10.0,NW,11.5,23.0,N/A,,Overcast,310,2012-11-25 01:54:00
9:54 PM,32.0,19.9,61,29.97,10.0,NW,15.0,23.0,N/A,,Overcast,320,2012-11-25 02:54:00
10:54 PM,32.0,19.9,61,29.96,10.0,WNW,8.1,-,N/A,,Overcast,300,2012-11-25 03:54:00
11:54 PM,32.0,19.9,61,29.97,10.0,WNW,8.1,-,N/A,,Overcast,290,2012-11-25 04:54:00